When you browse on this site, cookies collect data to enhance your experience and personalize the content and advertising you see.
Visit our Privacy Policy to learn more. By continuing to use the site, you agree to this use of cookies and data.
  • In Schweiz
  • Länderverzeichnis
  • Für 7 Tage
  • Wassertemperatur
  • Wetterkarte
  • Widgets
  • user-avatar
    Anmelden

    Stündliche Wetter Hanoi

    Heute, 22 August, Donnerstag

    Zeit Temperatur Niederschläge Wind Luftdruck Luftfeuchtigkeit
    00:00 +29°C° 0.6 mm 1 m/S 752 mmHg 89%
    01:00 +28°C° 0.6 mm 1 m/S 752 mmHg 90%
    02:00 +28°C° 1.3 mm 1 m/S 752 mmHg 91%
    03:00 +28°C° 1.3 mm 1 m/S 752 mmHg 91%
    04:00 +28°C° 1.3 mm 1 m/S 752 mmHg 92%
    05:00 +28°C° 1.1 mm 1 m/S 752 mmHg 91%
    06:00 +29°C° 1.1 mm 2 m/S 752 mmHg 90%
    07:00 +29°C° 1.1 mm 2 m/S 752 mmHg 88%
    08:00 +30°C° 1.1 mm 2 m/S 752 mmHg 83%
    09:00 +31°C° 1.1 mm 2 m/S 752 mmHg 77%
    10:00 +34°C° 1.1 mm 2 m/S 753 mmHg 72%
    11:00 +32°C° 3.6 mm 2 m/S 752 mmHg 73%
    12:00 +32°C° 3.6 mm 1 m/S 752 mmHg 74%
    13:00 +32°C° 3.6 mm 1 m/S 751 mmHg 75%
    14:00 +31°C° 3.5 mm 2 m/S 751 mmHg 79%
    15:00 +30°C° 3.5 mm 2 m/S 751 mmHg 83%
    16:00 +29°C° 3.5 mm 3 m/S 751 mmHg 88%
    17:00 +28°C° 0.2 mm 2 m/S 751 mmHg 89%
    18:00 +28°C° 0.2 mm 1 m/S 752 mmHg 91%
    19:00 +28°C° 0.2 mm 1 m/S 752 mmHg 92%
    20:00 +28°C° 0 mm 1 m/S 753 mmHg 92%
    21:00 +28°C° 0 mm 1 m/S 753 mmHg 92%
    22:00 +27°C° 0 mm 1 m/S 754 mmHg 91%
    23:00 +27°C° 0.3 mm 1 m/S 754 mmHg 91%

    Morgen, 23 August, Freitag

    Zeit Temperatur Niederschläge Wind Luftdruck Luftfeuchtigkeit
    00:00 +27°C° 0.3 mm 1 m/S 754 mmHg 91%
    01:00 +27°C° 0.3 mm 1 m/S 753 mmHg 91%
    02:00 +27°C° 0.6 mm 2 m/S 753 mmHg 91%
    03:00 +27°C° 0.6 mm 2 m/S 753 mmHg 91%
    04:00 +27°C° 0.6 mm 2 m/S 752 mmHg 92%
    05:00 +27°C° 0.2 mm 2 m/S 753 mmHg 91%
    06:00 +27°C° 0.2 mm 2 m/S 753 mmHg 91%
    07:00 +27°C° 0.2 mm 2 m/S 753 mmHg 90%
    08:00 +28°C° 0.2 mm 2 m/S 754 mmHg 87%
    09:00 +29°C° 0.2 mm 1 m/S 754 mmHg 83%
    10:00 +30°C° 0.2 mm 1 m/S 754 mmHg 80%
    11:00 +31°C° 0.7 mm 1 m/S 753 mmHg 76%
    12:00 +32°C° 0.7 mm 2 m/S 753 mmHg 72%
    13:00 +34°C° 0.7 mm 2 m/S 752 mmHg 67%
    14:00 +33°C° 1.3 mm 1 m/S 752 mmHg 69%
    15:00 +33°C° 1.3 mm 1 m/S 751 mmHg 71%
    16:00 +32°C° 1.3 mm 1 m/S 751 mmHg 73%
    17:00 +31°C° 2.5 mm 1 m/S 751 mmHg 79%
    18:00 +30°C° 2.5 mm 1 m/S 752 mmHg 85%
    19:00 +28°C° 2.5 mm 1 m/S 752 mmHg 91%
    20:00 +28°C° 0.9 mm 1 m/S 753 mmHg 91%
    21:00 +28°C° 0.9 mm 1 m/S 753 mmHg 91%
    22:00 +28°C° 0.9 mm 2 m/S 754 mmHg 91%
    23:00 +28°C° 0.4 mm 2 m/S 754 mmHg 91%

    übermorgen, 24 August, Samstag

    Zeit Temperatur Niederschläge Wind Luftdruck Luftfeuchtigkeit
    00:00 +28°C° 0.4 mm 2 m/S 754 mmHg 92%
    01:00 +27°C° 0.4 mm 2 m/S 753 mmHg 92%
    02:00 +27°C° 0.2 mm 2 m/S 753 mmHg 93%
    03:00 +27°C° 0.2 mm 2 m/S 753 mmHg 93%
    04:00 +27°C° 0.2 mm 2 m/S 753 mmHg 93%
    05:00 +27°C° 0.2 mm 2 m/S 753 mmHg 92%
    06:00 +28°C° 0.2 mm 2 m/S 753 mmHg 91%
    07:00 +28°C° 0.2 mm 2 m/S 753 mmHg 90%
    08:00 +29°C° 0.9 mm 3 m/S 753 mmHg 84%
    09:00 +31°C° 0.9 mm 3 m/S 753 mmHg 79%
    10:00 +33°C° 0.9 mm 3 m/S 754 mmHg 74%
    11:00 +34°C° 3.8 mm 3 m/S 753 mmHg 72%
    12:00 +34°C° 3.8 mm 3 m/S 753 mmHg 71%
    13:00 +34°C° 3.8 mm 3 m/S 752 mmHg 70%
    14:00 +34°C° 3.8 mm 3 m/S 752 mmHg 72%
    15:00 +33°C° 3.8 mm 3 m/S 751 mmHg 75%
    16:00 +33°C° 3.8 mm 3 m/S 751 mmHg 77%
    17:00 +31°C° 1.1 mm 2 m/S 751 mmHg 80%
    18:00 +30°C° 1.1 mm 2 m/S 752 mmHg 82%
    19:00 +29°C° 1.1 mm 1 m/S 752 mmHg 85%
    20:00 +29°C° 0.6 mm 1 m/S 753 mmHg 85%
    21:00 +29°C° 0.6 mm 1 m/S 753 mmHg 85%
    22:00 +28°C° 0.6 mm 1 m/S 754 mmHg 86%
    23:00 +28°C° 0.4 mm 1 m/S 754 mmHg 87%

    25 August, Sonntag

    Zeit Temperatur Niederschläge Wind Luftdruck Luftfeuchtigkeit
    00:00 +28°C° 0.4 mm 1 m/S 754 mmHg 88%
    01:00 +28°C° 0.4 mm 1 m/S 753 mmHg 89%
    02:00 +28°C° 0.3 mm 1 m/S 753 mmHg 89%
    03:00 +27°C° 0.3 mm 1 m/S 753 mmHg 89%
    04:00 +27°C° 0.3 mm 2 m/S 753 mmHg 90%
    05:00 +28°C° 0 mm 2 m/S 753 mmHg 89%
    06:00 +28°C° 0 mm 2 m/S 753 mmHg 88%
    07:00 +28°C° 0 mm 2 m/S 754 mmHg 87%
    08:00 +30°C° 0.5 mm 2 m/S 754 mmHg 81%
    09:00 +31°C° 0.5 mm 2 m/S 754 mmHg 76%
    10:00 +34°C° 0.5 mm 2 m/S 754 mmHg 70%
    11:00 +35°C° 0.5 mm 2 m/S 753 mmHg 65%
    12:00 +35°C° 0.5 mm 1 m/S 753 mmHg 60%
    13:00 +36°C° 0.5 mm 1 m/S 752 mmHg 56%
    14:00 +36°C° 0.1 mm 1 m/S 752 mmHg 56%
    15:00 +36°C° 0.1 mm 1 m/S 751 mmHg 57%
    16:00 +36°C° 0.1 mm 2 m/S 751 mmHg 58%
    17:00 +35°C° 0.1 mm 2 m/S 751 mmHg 65%
    18:00 +32°C° 0.1 mm 2 m/S 752 mmHg 71%
    19:00 +31°C° 0.1 mm 2 m/S 752 mmHg 77%
    20:00 +30°C° 0.1 mm 2 m/S 753 mmHg 79%
    21:00 +30°C° 0.1 mm 2 m/S 753 mmHg 81%
    22:00 +29°C° 0.1 mm 2 m/S 754 mmHg 83%
    23:00 +29°C° 0 mm 1 m/S 754 mmHg 83%

    26 August, Montag

    Zeit Temperatur Niederschläge Wind Luftdruck Luftfeuchtigkeit
    00:00 +29°C° 0 mm 1 m/S 753 mmHg 84%
    01:00 +27°C° 0 mm 0 m/S 753 mmHg 84%
    02:00 +28°C° 0 mm 1 m/S 753 mmHg 85%
    03:00 +28°C° 0 mm 1 m/S 752 mmHg 86%
    04:00 +28°C° 0 mm 1 m/S 752 mmHg 87%
    05:00 +28°C° 0 mm 1 m/S 752 mmHg 86%
    06:00 +29°C° 0 mm 1 m/S 753 mmHg 85%
    07:00 +29°C° 0 mm 1 m/S 753 mmHg 85%
    08:00 +31°C° 0.1 mm 1 m/S 753 mmHg 79%
    09:00 +32°C° 0.1 mm 1 m/S 753 mmHg 72%
    10:00 +34°C° 0.1 mm 1 m/S 753 mmHg 66%
    11:00 +34°C° 0 mm 1 m/S 752 mmHg 63%
    12:00 +35°C° 0 mm 1 m/S 752 mmHg 60%
    13:00 +36°C° 0 mm 1 m/S 751 mmHg 56%
    14:00 +36°C° 0 mm 1 m/S 751 mmHg 58%
    15:00 +36°C° 0 mm 2 m/S 751 mmHg 59%
    16:00 +36°C° 0 mm 2 m/S 750 mmHg 61%
    17:00 +35°C° 0.1 mm 2 m/S 751 mmHg 67%
    18:00 +33°C° 0.1 mm 3 m/S 751 mmHg 74%
    19:00 +30°C° 0.1 mm 3 m/S 752 mmHg 80%
    20:00 +30°C° 0 mm 3 m/S 752 mmHg 81%
    21:00 +30°C° 0 mm 2 m/S 753 mmHg 82%
    22:00 +30°C° 0 mm 2 m/S 754 mmHg 83%
    23:00 +30°C° 0 mm 2 m/S 753 mmHg 83%

    27 August, Dienstag

    Zeit Temperatur Niederschläge Wind Luftdruck Luftfeuchtigkeit
    00:00 +29°C° 0 mm 1 m/S 753 mmHg 83%
    01:00 +29°C° 0 mm 1 m/S 753 mmHg 83%
    02:00 +29°C° 0.2 mm 1 m/S 752 mmHg 84%
    03:00 +27°C° 0.2 mm 0 m/S 752 mmHg 84%
    04:00 +27°C° 0.2 mm 0 m/S 752 mmHg 85%
    05:00 +27°C° 0 mm 0 m/S 752 mmHg 85%
    06:00 +29°C° 0 mm 1 m/S 753 mmHg 85%
    07:00 +30°C° 0 mm 1 m/S 753 mmHg 85%
    08:00 +31°C° 0.2 mm 1 m/S 753 mmHg 79%
    09:00 +32°C° 0.2 mm 1 m/S 753 mmHg 73%
    10:00 +34°C° 0.2 mm 1 m/S 753 mmHg 67%
    11:00 +34°C° 0.6 mm 1 m/S 753 mmHg 65%
    12:00 +36°C° 0.6 mm 2 m/S 752 mmHg 63%
    13:00 +36°C° 0.6 mm 2 m/S 751 mmHg 61%
    14:00 +36°C° 1.3 mm 2 m/S 751 mmHg 64%
    15:00 +35°C° 1.3 mm 3 m/S 750 mmHg 66%
    16:00 +35°C° 1.3 mm 3 m/S 750 mmHg 69%
    17:00 +34°C° 0.3 mm 3 m/S 750 mmHg 74%
    18:00 +31°C° 0.3 mm 2 m/S 751 mmHg 78%
    19:00 +30°C° 0.3 mm 2 m/S 751 mmHg 83%
    20:00 +30°C° 0 mm 2 m/S 752 mmHg 84%
    21:00 +29°C° 0 mm 2 m/S 753 mmHg 85%
    22:00 +29°C° 0 mm 1 m/S 753 mmHg 87%
    23:00 +29°C° 0 mm 1 m/S 753 mmHg 87%
    Mehr zeigen